Regional Weather Roundup
Issued by NWS

Home | Current Version | Previous Version | Text Only | Print | Product List | Glossary Off
Versions: 1 2 3 4 5 6 7 8 9 10 11 12 13 14 15 16 17 18 19 20 21 22 23 24 25 26 27 28 29 30 31 32 33 34 35 36 37 38 39 40 41 42 43 44 45 46 47 48 49 50

000
ASUS45 KSLC 181010
RWRUT

UTAH REGIONAL WEATHER ROUNDUP
NATIONAL WEATHER SERVICE SALT LAKE CITY UT
400 AM MDT SAT APR 18 2015

UTZ001>011-023>025-181100-

NORTHERN UTAH

CITY           SKY/WX    TMP DP  RH WIND       PRES   REMARKS
BRIGHAM CITY     N/A     43  37  78 N5        30.03S
HILL AFB         N/A     44  37  75 E18       30.02F
LOGAN          CLEAR     36  33  89 N3        30.04R
OGDEN            N/A     45  36  70 S7        30.01F
PROVO AIRPORT    N/A     43  34  70 CALM      30.03S
SALT LAKE CITY   N/A     45  37  73 NW7       30.01F
VERNAL         CLOUDY    44  34  67 CALM      30.03S
WENDOVER         N/A     48  18  29 S6        30.04R
HEBER CITY       N/A     32  30  93 E6        30.06F WCI  26
WEST JORDAN    CLEAR     45  36  70 NW5       30.03S

$$

UTZ012>022-026-027-181100-

SOUTHERN/CENTRAL UTAH

CITY           SKY/WX    TMP DP  RH WIND       PRES   REMARKS
BLANDING         N/A     32  32 100 CALM      30.09R
BRYCE CANYON     N/A     31  25  78 CALM      30.08S
CEDAR CITY       N/A     36  27  69 SE5       30.06S WCI  32
DELTA            N/A     37  28  70 SW5       30.04S WCI  33
HANKSVILLE     CLOUDY    43  43 100 CALM      30.05R
MILFORD          N/A     33  27  78 S7        30.05S WCI  27
MOAB/CYNLANDS  PTCLDY    38  38 100 SE7       30.02R WCI  33
PRICE          MOCLDY    38  33  82 NE3       30.02S
ST GEORGE        N/A     48  25  40 SE6       30.02S
KANAB            N/A     34  28  80 CALM      30.08S

$$

REGIONAL REPORTS     COLORADO/ARIZONA

CITY           SKY/WX    TMP DP  RH WIND       PRES   REMARKS
CRAIG, CO      CLOUDY    34  30  85 W9        30.02S WCI  27
GRAND JUNCTION CLOUDY    34  34 100 CALM      30.04S
RIFLE          CLOUDY    34  31  88 NE5       30.04F WCI  30
MONTROSE       FOG       31  31 100 W5        30.06S VSB 3/4 WCI  26
CORTEZ         CLOUDY    33  33 100 S3        30.02S FOG
PAGE, AZ         N/A     51  34  52 CALM      29.99S
GRAND CANYON     N/A     25  22  88 CALM      30.10S
KINGMAN          N/A     43  20  39 CALM      30.01S
FLAGSTAFF        N/A     29  23  78 CALM      30.10S

$$

REGIONAL REPORTS    NEVADA/IDAHO/WYOMING

CITY           SKY/WX    TMP DP  RH WIND       PRES   REMARKS
LAS VEGAS, NV    N/A     63  19  18 SW10      29.92S
ELY              N/A     26  10  50 S12       30.13S WCI  16
ELKO             N/A     37  20  50 E5        30.11S WCI  33
POCATELLO, ID  CLEAR     45  24  43 SW6       30.05S
BURLEY           N/A     38  25  59 SW9       30.02S WCI  31
EVANSTON, WY   PTCLDY    35  30  82 N3        30.09F
ROCK SPRINGS   CLOUDY    36  34  92 NW8       30.05F WCI  30

$$


USA.gov is the U.S. government's official web portal to all federal, state and local government web resources and services.